Location: De Greiden
(52.9496°N, 5.9137°E)
Time: 23:27:37
(UTC+00:00)

ATLAS 2AS CENTAUR R/B - Pass Details

Date: 24 January 2021
Orbit: 947 x 1265 km, 63.7° (Epoch: 13 February)

Event Time Altitude Azimuth Distance (km) Brightness Sun altitude
Rises 17:01:20 0° 250° (WSW) 4,218 8.4 -8.3°
Reaches altitude 10° 17:04:15 10° 255° (WSW) 3,252 6.9 -8.7°
Maximum altitude 17:11:59 54° 332° (NNW) 1,491 3.5 -9.8°
Drops below altitude 10° 17:19:27 10° 48° (NE) 3,142 4.6 -10.8°
Enters shadow 17:19:28 10° 49° (NE) 3,149 4.6 -10.8°
